GFSNW_sfc_rhum_000.txt.gz
RH
95 94 94 94 94 87 67 58 44 56 61 44 52 55 37 52 34 34 38 38 39 42 43 44 41 42 39 33 32 44 44 55 65 48 34 35 38 44 42 64 57 58 74 59
94 94 94 94 95 87 55 43 42 50 59 79 78 49 46 44 38 40 38 44 43 43 46 55 46 45 43 36 36 48 47 64 72 46 39 39 42 40 41 49 74 84 95 57
93 93 94 94 95 88 53 42 90 58 52 52 48 51 55 54 50 48 46 46 47 48 52 48 54 49 45 48 42 67 58 58 68 64 46 40 56 46 43 56 96 78 65 51
94 94 95 94 94 88 48 50 72 61 80 70 56 54 53 56 57 49 44 51 52 54 71 60 58 49 45 44 61 57 56 78 56 52 48 51 54 54 51 56 59 86 64 47
95 95 95 95 93 85 49 56 64 65 68 57 47 63 55 53 50 48 49 53 55 52 59 54 61 51 54 57 50 55 53 84 78 84 57 56 66 56 53 51 51 48 50 51
96 97 96 96 92 77 48 58 56 70 86 66 60 55 50 48 49 51 47 50 56 77 54 46 45 48 50 50 58 67 75 89 99 96 60 78 100 80 55 44 42 49 61 47
97 98 99 98 90 80 55 58 49 100 92 77 57 46 48 51 54 55 48 54 71 50 50 51 51 52 53 54 53 55 95 100 96 99 98 98 38 29 31 40 40 38 37 39
97 96 94 95 97 84 62 63 59 95 100 69 64 60 53 56 57 59 56 51 48 55 59 90 100 92 100 74 54 57 63 96 100 100 89 60 43 35 43 51 49 34 35 35
96 95 95 95 97 89 74 67 66 67 91 95 48 55 57 69 72 75 70 57 58 61 90 100 100 94 76 62 55 59 64 89 100 100 100 89 50 34 34 36 60 38 40 52
96 95 95 95 95 95 74 72 74 71 100 82 60 68 70 60 69 73 71 68 89 65 100 100 100 94 54 79 100 98 100 100 100 98 99 80 41 38 40 81 70 57 53 55
96 96 95 95 94 95 92 82 74 76 98 77 69 61 62 67 66 92 73 79 90 99 100 100 100 100 83 93 60 80 83 100 100 100 100 98 38 41 69 54 57 49 51 56
96 96 95 95 95 95 96 99 84 84 99 92 68 58 53 55 52 59 76 70 63 80 97 100 100 100 100 100 96 63 95 83 80 64 70 44 42 49 48 50 56 56 59 54
97 97 96 95 95 95 95 98 98 98 100 99 100 85 64 61 62 56 88 99 67 84 79 99 100 100 100 100 93 88 69 58 85 84 61 49 52 49 48 49 56 52 59 74
97 97 96 96 97 97 96 99 96 97 100 100 96 66 67 53 60 61 65 63 66 71 88 100 100 100 94 100 88 92 75 84 93 91 75 56 53 48 49 51 52 55 62 77
98 97 97 97 97 98 98 99 98 94 97 100 98 76 63 55 63 69 68 74 78 96 100 100 100 98 97 94 90 96 91 87 94 91 56 62 62 48 44 49 57 62 77 79
99 98 98 98 99 99 99 100 99 98 99 100 100 90 85 68 66 66 68 72 89 96 100 100 99 93 99 100 98 68 58 52 49 62 49 50 48 45 44 58 62 61 60 68
98 98 98 98 99 98 99 97 97 98 98 100 100 100 91 73 70 68 70 75 94 98 100 100 97 93 99 100 96 60 52 45 44 46 52 60 50 60 56 56 45 44 47 64
97 97 98 98 98 95 98 99 98 99 99 100 100 100 99 71 96 99 91 95 98 100 94 97 96 84 100 100 58 44 36 37 41 42 46 54 53 51 38 33 37 42 48 62
97 97 97 97 98 100 99 98 99 100 100 100 100 100 100 74 86 92 99 98 100 94 100 95 77 97 98 59 44 41 41 44 46 49 50 46 37 36 38 42 46 53 59 82
96 92 95 100 100 94 97 95 100 100 100 100 100 94 99 71 100 100 100 100 100 100 91 76 100 81 52 44 42 43 46 47 50 55 48 48 50 46 50 58 69 90 98 92
84 100 100 93 92 98 96 100 100 100 100 99 95 87 90 84 96 100 100 100 100 100 79 96 91 79 50 42 45 43 41 40 39 40 42 42 49 57 65 82 93 99 98 86
85 90 89 92 99 100 100 100 100 98 90 86 97 93 83 96 92 100 100 100 100 98 80 98 92 56 47 45 41 43 43 42 41 40 46 52 59 69 83 93 95 97 90 99
86 94 100 98 100 97 90 90 96 96 100 99 99 99 100 100 100 100 100 100 99 95 98 87 64 51 43 44 43 42 40 53 69 48 49 61 66 75 96 100 98 99 90 84
100 100 95 94 90 86 82 88 100 100 100 100 100 99 100 100 100 100 100 91 94 96 90 86 59 46 43 43 47 52 49 82 83 64 68 100 100 99 90 93 91 91 85 84
100 100 90 91 86 92 95 100 99 99 97 100 100 97 95 99 100 99 98 100 92 84 79 80 64 54 54 56 58 56 94 96 83 62 95 100 98 89 87 83 88 90 88 88
96 100 91 93 100 100 100 100 100 90 97 94 94 87 88 86 94 96 96 90 67 72 92 68 50 52 54 55 76 86 78 71 64 63 83 88 91 91 79 88 92 92 95 94
89 87 93 94 98 96 100 100 94 83 94 98 97 97 80 74 90 90 73 77 81 84 72 56 52 59 61 62 72 93 96 74 68 67 82 87 80 87 84 87 80 89 97 99

GFSNW_sfc_rhum_003.txt.gz
RH
94 94 94 93 93 85 70 47 40 47 49 42 38 42 30 49 29 28 31 30 32 35 36 39 36 37 35 31 31 39 41 49 64 43 27 26 29 35 36 58 55 53 61 57
93 93 93 93 94 91 44 33 33 42 50 76 67 37 38 34 31 34 33 38 38 37 40 50 40 40 38 33 34 42 40 56 66 39 33 32 34 29 32 39 54 70 93 60
93 94 93 93 93 92 53 34 81 45 39 38 38 41 42 45 40 39 37 39 38 40 44 40 47 43 38 40 39 68 53 52 62 66 48 38 49 38 35 42 87 68 61 48
93 93 94 93 93 92 56 32 53 46 72 54 42 41 39 43 47 40 37 42 41 43 63 54 44 40 38 37 54 47 50 70 52 45 39 38 40 41 38 40 44 65 51 40
94 93 94 94 94 91 41 44 50 46 48 42 39 53 41 39 40 37 40 44 41 41 49 48 53 43 44 46 39 48 47 82 69 80 52 45 54 42 39 38 37 36 38 39
94 94 95 95 93 84 38 40 40 58 68 49 51 47 37 37 38 42 36 39 44 61 48 40 40 43 43 43 49 61 69 92 98 92 55 77 98 71 48 40 32 34 46 38
95 98 98 98 95 89 49 45 40 99 82 64 46 38 37 40 42 51 41 41 54 44 41 42 45 45 42 41 40 41 88 99 98 99 98 95 38 27 27 33 30 29 30 29
96 99 94 95 95 84 55 50 50 87 100 59 48 47 42 40 45 50 45 42 38 46 50 86 100 83 99 73 40 41 44 93 100 100 82 58 46 31 37 46 45 32 34 38
96 96 94 94 95 93 63 55 56 58 89 82 42 44 44 59 62 59 61 42 46 53 79 100 100 86 70 52 38 45 48 81 100 100 100 94 44 32 31 33 53 40 44 47
96 95 95 95 94 95 72 56 70 59 100 67 49 56 58 49 56 65 60 57 78 56 100 100 100 93 48 76 97 95 99 100 100 98 99 72 40 31 35 75 64 53 49 53
96 96 95 95 94 94 88 68 68 69 84 61 57 50 54 51 57 83 59 68 80 96 100 100 98 100 70 66 50 70 73 100 100 100 100 98 31 35 78 65 54 48 52 55
96 96 95 95 95 95 95 91 71 74 93 69 63 50 45 44 44 50 60 65 54 72 93 99 100 100 100 100 94 48 75 62 73 61 65 43 38 44 42 42 49 58 64 51
96 96 96 95 96 95 94 89 90 94 100 99 95 74 55 48 50 47 82 82 57 58 54 92 100 100 88 100 92 96 77 57 75 75 53 44 45 46 46 48 61 45 51 54
96 96 96 95 95 95 96 98 91 95 100 100 96 61 68 50 48 53 55 58 60 63 79 100 100 100 89 98 82 83 73 75 81 77 58 52 58 55 44 50 48 44 48 52
97 97 96 96 95 95 96 98 96 92 96 100 99 80 55 48 49 54 56 62 67 89 100 100 100 96 95 91 91 95 76 78 90 96 67 69 56 41 40 46 54 51 50 41
98 97 97 97 96 98 99 100 99 95 99 100 100 84 73 54 57 56 65 66 74 88 100 100 99 76 96 100 96 77 56 55 58 75 59 55 42 40 41 52 49 34 34 33
99 99 99 98 99 98 99 98 96 95 96 100 100 100 89 73 70 62 62 67 85 93 100 100 97 91 96 100 97 59 49 48 43 44 47 44 42 48 43 36 30 33 31 32
97 97 98 99 98 98 98 99 99 99 99 100 100 100 100 68 99 99 70 94 100 100 99 98 99 81 100 100 60 42 33 31 29 30 36 44 42 38 30 29 31 38 42 52
96 95 93 94 96 99 99 98 97 99 99 100 100 100 100 62 81 92 93 94 100 92 100 95 71 86 95 60 41 35 33 35 47 43 41 36 35 34 32 31 35 52 65 88
93 81 86 100 100 93 96 94 100 100 100 100 100 94 100 65 99 100 100 100 100 100 88 61 96 76 47 39 35 34 42 41 39 48 48 47 44 37 37 40 48 69 97 93
71 97 100 96 91 86 94 100 100 100 100 100 98 88 91 87 99 100 100 100 100 100 66 89 89 74 45 34 38 39 36 35 34 35 35 34 36 38 48 58 66 86 92 80
75 81 81 87 99 100 100 100 100 100 86 74 95 83 70 92 87 99 100 100 100 97 76 98 89 49 40 38 36 34 34 35 35 36 39 38 36 44 62 73 81 94 91 100
68 91 100 98 100 99 91 89 98 95 95 99 99 98 92 100 99 100 100 100 100 92 100 85 65 50 33 30 30 30 29 43 64 45 44 46 48 60 90 97 99 99 98 83
99 100 98 99 98 78 67 75 100 100 100 100 96 98 95 100 100 100 100 82 87 95 84 82 54 39 33 34 38 43 42 85 83 60 60 82 100 100 100 100 100 100 93 89
100 100 91 88 75 87 97 100 97 98 93 97 96 96 85 91 94 94 89 89 88 73 66 64 50 47 48 48 49 44 74 96 89 63 84 100 100 100 99 100 95 95 100 98
100 100 99 96 99 99 100 100 100 88 90 93 93 94 89 84 84 88 86 71 52 67 80 59 40 41 45 48 62 63 61 64 65 63 72 80 100 100 96 93 98 100 100 100
100 96 93 96 99 100 100 100 90 72 95 96 86 88 77 48 69 70 52 69 78 73 62 49 44 48 51 53 56 70 76 68 66 70 74 73 86 100 99 89 76 89 96 100

GFSNW_sfc_rhum_006.txt.gz
RH
94 93 92 92 93 87 71 58 54 48 50 48 44 42 28 49 27 25 29 30 32 36 35 39 35 36 36 32 32 39 43 52 73 48 31 25 27 35 36 79 69 65 71 62
94 93 93 93 94 91 56 37 38 44 53 80 66 34 33 30 28 32 32 36 35 34 39 50 40 39 38 34 34 48 45 61 70 45 35 31 37 33 33 40 71 70 95 68
94 93 93 93 94 93 61 37 85 48 41 35 39 38 38 41 37 35 33 35 35 37 41 37 46 40 37 39 39 67 55 52 61 74 56 44 53 41 38 44 71 62 60 49
94 94 94 93 93 92 66 34 53 45 75 50 41 38 35 39 42 36 33 37 37 40 67 56 43 38 41 38 62 42 49 76 55 50 45 46 51 49 44 44 44 58 49 40
94 94 94 94 94 94 51 54 51 43 44 37 36 50 36 36 36 33 37 41 36 38 50 48 56 46 48 49 39 49 54 88 85 85 58 51 57 50 47 44 40 39 40 39
95 91 97 96 95 88 41 39 38 64 66 49 53 49 34 34 34 40 34 38 44 68 47 46 45 46 46 47 53 63 65 92 100 88 65 76 92 65 49 42 35 37 51 39
95 98 98 95 96 94 60 55 47 100 87 67 47 36 34 36 36 46 40 40 49 40 38 43 50 52 47 46 43 41 73 99 100 100 100 96 44 33 35 40 36 35 33 33
95 98 96 92 93 95 65 52 55 91 100 60 46 43 41 38 41 42 41 38 46 48 47 94 100 91 100 80 39 40 42 99 100 100 89 64 54 40 43 49 50 36 42 48
96 96 94 94 94 94 76 57 59 65 90 88 43 45 42 66 68 64 52 42 41 51 96 100 100 89 71 59 42 45 63 97 100 100 98 93 64 37 33 36 66 57 61 67
96 96 96 95 94 94 80 77 69 61 100 75 56 56 60 47 59 71 63 56 79 53 100 100 100 96 48 65 96 94 100 100 100 95 95 77 46 36 42 83 93 74 68 76
96 96 96 96 96 95 87 76 73 78 85 66 54 53 56 51 56 88 62 72 81 98 100 100 98 100 80 72 54 72 72 93 97 100 100 93 36 43 84 65 61 63 73 76
97 97 97 96 96 95 96 83 81 79 94 69 70 62 56 49 48 63 66 71 59 79 96 100 100 100 100 100 92 47 79 67 76 65 70 48 42 48 52 56 66 73 68 57
98 97 97 96 96 95 94 84 92 95 100 93 86 76 59 52 57 54 83 85 60 62 64 92 100 100 94 100 99 88 68 53 77 76 56 49 50 50 54 54 63 63 60 64
98 98 97 97 96 96 97 99 88 97 100 100 94 61 67 52 54 57 60 66 66 71 84 100 100 100 90 99 79 83 73 66 76 78 64 57 56 56 55 56 55 62 62 64
98 97 97 97 96 96 97 97 93 94 99 100 99 80 58 54 55 56 61 68 74 91 100 100 100 98 95 91 88 94 71 74 89 88 62 73 64 53 50 57 71 63 45 40
98 98 98 97 97 98 100 100 98 97 99 100 100 90 77 58 54 57 62 65 75 88 94 100 96 81 95 100 88 61 50 48 51 60 47 47 47 44 50 64 65 36 35 39
99 98 98 98 98 98 100 98 99 95 97 100 100 99 88 65 65 63 67 68 82 92 99 100 100 99 97 100 98 65 56 48 44 42 47 61 50 58 50 42 33 35 38 51
98 98 99 99 99 99 99 99 99 98 99 100 100 100 100 73 95 99 82 98 100 100 100 100 100 94 100 100 65 51 42 36 35 43 43 44 38 35 32 31 35 40 52 66
95 95 93 94 96 100 100 98 96 98 97 100 100 100 100 68 91 98 100 100 100 100 100 98 95 94 96 74 54 44 40 43 50 44 37 36 39 37 36 36 39 48 66 84
88 79 92 100 100 98 97 97 100 100 100 100 100 96 100 66 100 100 100 100 100 100 94 72 99 86 57 49 43 39 45 37 35 55 56 52 49 41 42 41 43 62 80 77
79 97 100 96 90 96 100 100 100 100 100 100 97 96 92 82 99 100 100 100 100 100 78 92 86 79 56 38 38 36 34 33 33 34 35 34 39 42 48 59 71 84 90 90
84 79 82 93 98 100 100 100 100 100 89 96 98 91 87 100 90 100 100 99 100 92 77 98 86 57 37 39 37 32 31 31 32 34 35 35 36 46 66 73 84 94 91 98
67 91 100 100 100 100 96 91 99 97 98 99 98 99 94 100 100 100 100 98 89 97 99 77 66 50 40 33 30 33 33 64 67 41 38 45 50 61 89 91 99 99 97 96
100 100 95 98 95 82 71 80 100 100 100 100 100 100 99 100 100 100 99 82 94 94 84 74 67 48 39 41 45 45 45 78 72 69 69 76 86 86 97 99 98 98 90 94
100 99 85 90 77 94 99 100 99 100 92 93 97 96 88 98 95 91 90 86 81 73 70 74 65 64 58 56 53 46 84 86 76 62 73 84 91 99 98 97 93 94 96 93
100 99 96 93 99 100 100 100 100 93 92 92 95 91 82 78 80 80 80 74 60 68 88 68 54 59 61 58 57 71 66 69 66 62 71 77 88 100 96 96 100 100 98 95
100 92 100 100 100 100 100 100 95 81 95 92 85 78 74 60 70 66 55 70 77 76 69 57 58 57 58 54 57 73 70 67 64 67 72 79 90 100 98 99 99 94 95 96

GFSNW_sfc_rhum_009.txt.gz
RH
94 93 92 93 94 89 80 85 81 68 74 81 87 72 40 47 35 37 41 43 47 50 50 53 51 55 51 44 44 60 56 66 88 58 41 38 36 48 48 88 92 89 92 75
95 94 92 93 94 93 94 88 80 73 73 96 92 48 44 46 42 41 42 49 45 48 55 67 55 54 52 41 52 61 58 78 90 68 51 51 54 47 51 61 79 76 96 75
96 94 93 94 94 94 95 82 89 86 78 71 56 54 51 52 49 45 42 44 47 51 56 54 58 52 54 52 52 68 61 69 78 89 71 61 68 58 54 63 91 80 74 60
96 95 94 94 94 93 94 77 78 67 90 78 61 58 49 53 57 49 44 51 48 52 72 66 62 55 57 54 72 58 61 83 74 68 62 58 54 55 56 62 62 75 62 56
96 95 97 98 95 95 80 83 88 83 75 56 58 63 53 48 41 44 51 53 52 52 68 68 78 69 71 70 61 71 68 86 88 89 70 65 73 66 61 58 59 58 56 50
95 96 98 98 96 94 88 73 71 93 90 71 80 76 51 50 49 56 44 50 59 70 68 65 66 66 65 66 71 79 80 88 99 88 81 84 89 69 62 58 48 54 72 63
95 98 98 94 96 98 96 92 90 99 92 92 74 52 48 49 53 61 52 52 66 66 54 64 77 73 73 80 70 64 81 95 98 98 99 98 61 42 41 52 51 53 68 74
95 98 98 94 94 97 96 89 91 99 100 97 77 62 60 55 61 62 57 54 60 63 78 97 94 88 78 63 63 84 74 97 98 98 98 76 64 56 62 61 59 77 74 69
96 96 95 92 94 97 95 94 87 97 97 92 66 66 66 84 86 81 73 64 64 66 99 98 94 97 79 72 58 71 85 95 98 99 99 91 67 52 58 56 84 79 74 88
96 96 96 95 94 94 96 96 89 94 100 96 76 81 83 70 78 88 82 78 83 78 100 100 99 94 72 83 94 82 98 98 98 99 94 85 60 50 65 90 83 78 75 79
96 97 97 96 95 94 96 96 89 95 99 95 76 72 80 78 81 93 81 83 89 100 100 100 100 98 95 88 68 77 84 93 98 98 99 95 56 52 77 69 70 58 71 79
97 97 97 97 96 95 98 97 94 94 97 94 88 84 82 76 75 84 84 82 82 94 99 99 100 100 100 98 93 61 85 75 87 84 83 65 52 56 56 54 63 72 78 82
98 98 97 97 96 95 94 98 98 98 100 98 95 89 74 66 69 70 94 97 75 87 86 99 100 100 100 100 98 91 76 70 87 84 68 56 57 54 55 58 69 78 80 81
99 98 98 97 97 95 95 99 97 98 100 100 94 74 80 67 68 71 76 74 79 87 97 100 100 100 94 99 88 90 84 82 84 82 68 62 61 63 62 74 84 83 71 72
99 98 98 98 97 96 97 99 98 97 98 100 99 86 72 66 70 72 74 83 88 99 100 100 100 100 98 100 98 98 77 74 88 89 64 74 69 65 66 75 71 66 65 63
98 98 98 97 97 98 99 100 99 98 99 100 100 90 86 73 69 71 72 77 89 94 100 100 99 87 93 100 93 67 54 58 61 74 64 62 70 59 61 65 59 46 62 71
98 98 98 98 99 99 100 97 96 96 97 100 100 100 94 84 81 85 87 82 93 96 100 100 100 99 97 100 98 68 61 61 60 56 60 71 60 55 45 42 42 46 64 69
98 98 98 99 99 99 99 100 98 98 99 100 100 100 99 89 99 100 97 100 100 100 100 100 100 98 100 100 80 69 61 56 55 55 51 52 48 46 41 40 45 53 77 84
98 98 96 95 96 100 100 97 96 99 98 100 100 100 100 83 98 99 100 100 100 99 100 100 98 100 98 94 81 66 60 64 55 48 47 48 51 51 48 47 49 63 80 85
93 92 95 100 100 97 98 96 100 100 100 100 100 99 100 88 100 100 100 100 100 100 95 96 100 94 66 57 55 57 52 46 50 61 64 62 61 57 54 56 61 79 87 89
91 100 100 100 96 99 100 100 100 100 99 99 99 99 100 94 99 100 100 100 100 99 94 98 98 96 74 58 57 47 45 42 43 47 47 42 47 47 55 72 78 84 92 92
90 93 94 99 100 100 99 99 99 98 98 99 99 98 97 100 100 100 100 99 100 92 92 96 90 85 55 53 49 50 54 55 53 47 50 52 50 57 74 83 84 94 95 98
90 98 100 99 99 100 99 99 99 99 100 99 99 100 99 100 100 100 98 100 96 97 99 85 90 70 57 57 60 56 58 66 67 59 63 65 68 72 84 83 91 96 94 96
98 97 99 95 95 95 96 98 99 100 100 100 99 100 100 98 93 94 96 93 97 99 93 92 93 76 65 60 65 59 62 75 73 73 78 83 84 86 87 94 95 96 98 94
97 96 95 99 96 99 99 100 99 100 98 99 98 99 97 99 98 98 94 93 86 93 90 95 93 72 67 67 63 58 75 83 86 79 85 82 82 88 93 96 95 97 96 98
92 93 96 97 98 99 98 99 100 100 97 98 97 95 94 92 96 98 95 94 89 88 94 94 77 72 71 70 73 69 74 81 80 82 80 79 86 90 93 95 96 94 97 97
97 98 100 100 99 98 99 100 96 95 97 96 96 90 85 90 96 96 90 90 90 94 94 93 72 71 71 72 72 76 81 77 73 66 72 79 88 100 94 89 85 98 99 96